Year,Month,Day,Hour,Minute,Value (Times are PST for barometer in hPa)
2012,06,27,00,00,994.89
2012,06,27,00,01,994.89
2012,06,27,00,02,994.96
2012,06,27,00,03,994.92
2012,06,27,00,04,994.92
2012,06,27,00,05,994.99
2012,06,27,00,06,994.92
2012,06,27,00,07,994.96
2012,06,27,00,08,994.96
2012,06,27,00,09,994.99
2012,06,27,00,10,994.99
2012,06,27,00,11,995.02
2012,06,27,00,12,994.99
2012,06,27,00,13,995.02
2012,06,27,00,14,995.02
2012,06,27,00,15,995.02
2012,06,27,00,16,995.06
2012,06,27,00,17,995.06
2012,06,27,00,18,995.06
2012,06,27,00,19,995.09
2012,06,27,00,20,995.09
2012,06,27,00,21,995.09
2012,06,27,00,22,995.09
2012,06,27,00,23,995.12
2012,06,27,00,24,995.12
2012,06,27,00,25,995.12
2012,06,27,00,26,995.16
2012,06,27,00,27,995.19
2012,06,27,00,28,995.19
2012,06,27,00,29,995.19
2012,06,27,00,30,995.16
2012,06,27,00,31,995.16
2012,06,27,00,32,995.16
2012,06,27,00,33,995.16
2012,06,27,00,34,995.16
2012,06,27,00,35,995.12
2012,06,27,00,36,995.16
2012,06,27,00,37,995.12
2012,06,27,00,38,995.16
2012,06,27,00,39,995.16
2012,06,27,00,40,995.16
2012,06,27,00,41,995.26
2012,06,27,00,42,995.23
2012,06,27,00,43,995.19
2012,06,27,00,44,995.23
2012,06,27,00,45,995.23
2012,06,27,00,46,995.23
2012,06,27,00,47,995.26
2012,06,27,00,48,995.26
2012,06,27,00,49,995.26
2012,06,27,00,50,995.26
2012,06,27,00,51,995.23
2012,06,27,00,52,995.26
2012,06,27,00,53,995.23
2012,06,27,00,54,995.23
2012,06,27,00,55,995.23
2012,06,27,00,56,995.19
2012,06,27,00,57,995.23
2012,06,27,00,58,995.23
2012,06,27,00,59,995.19
2012,06,27,01,00,995.23
2012,06,27,01,01,995.23
2012,06,27,01,02,995.23
2012,06,27,01,03,995.26
2012,06,27,01,04,995.26
2012,06,27,01,05,995.26
2012,06,27,01,06,995.29
2012,06,27,01,07,995.26
2012,06,27,01,08,995.26
2012,06,27,01,09,995.23
2012,06,27,01,10,995.26
2012,06,27,01,11,995.26
2012,06,27,01,12,995.26
2012,06,27,01,13,995.26
2012,06,27,01,14,995.29
2012,06,27,01,15,995.26
2012,06,27,01,16,995.26
2012,06,27,01,17,995.23
2012,06,27,01,18,995.26
2012,06,27,01,19,995.29
2012,06,27,01,20,995.29
2012,06,27,01,21,995.29
2012,06,27,01,22,995.29
2012,06,27,01,23,995.33
2012,06,27,01,24,995.29
2012,06,27,01,25,995.33
2012,06,27,01,26,995.33
2012,06,27,01,27,995.29
2012,06,27,01,28,995.36
2012,06,27,01,29,995.36
2012,06,27,01,30,995.36
2012,06,27,01,31,995.36
2012,06,27,01,32,995.36
2012,06,27,01,33,995.33
2012,06,27,01,34,995.33
2012,06,27,01,35,995.36
2012,06,27,01,36,995.36
2012,06,27,01,37,995.36
2012,06,27,01,38,995.36
2012,06,27,01,39,995.36
2012,06,27,01,40,995.33
2012,06,27,01,41,995.36
2012,06,27,01,42,995.36
2012,06,27,01,43,995.33
2012,06,27,01,44,995.29
2012,06,27,01,45,995.29
2012,06,27,01,46,995.33
2012,06,27,01,47,995.26
2012,06,27,01,48,995.33
2012,06,27,01,49,995.33
2012,06,27,01,50,995.33
2012,06,27,01,51,995.36
2012,06,27,01,52,995.33
2012,06,27,01,53,995.33
2012,06,27,01,54,995.33
2012,06,27,01,55,995.36
2012,06,27,01,56,995.33
2012,06,27,01,57,995.43
2012,06,27,01,58,995.43
2012,06,27,01,59,995.50
2012,06,27,02,00,995.43
2012,06,27,02,01,995.46
2012,06,27,02,02,995.50
2012,06,27,02,03,995.46
2012,06,27,02,04,995.50
2012,06,27,02,05,995.53
2012,06,27,02,06,995.56
2012,06,27,02,07,995.60
2012,06,27,02,08,995.53
2012,06,27,02,09,995.63
2012,06,27,02,10,995.60
2012,06,27,02,11,995.60
2012,06,27,02,12,995.56
2012,06,27,02,13,995.63
2012,06,27,02,14,995.63
2012,06,27,02,15,995.60
2012,06,27,02,16,995.60
2012,06,27,02,17,995.63
2012,06,27,02,18,995.63
2012,06,27,02,19,995.67
2012,06,27,02,20,995.67
2012,06,27,02,21,995.63
2012,06,27,02,22,995.63
2012,06,27,02,23,995.67
2012,06,27,02,24,995.67
2012,06,27,02,25,995.67
2012,06,27,02,26,995.73
2012,06,27,02,27,995.73
2012,06,27,02,28,995.73
2012,06,27,02,29,995.77
2012,06,27,02,30,995.73
2012,06,27,02,31,995.77
2012,06,27,02,32,995.73
2012,06,27,02,33,995.77
2012,06,27,02,34,995.77
2012,06,27,02,35,995.77
2012,06,27,02,36,995.84
2012,06,27,02,37,995.84
2012,06,27,02,38,995.84
2012,06,27,02,39,995.84
2012,06,27,02,40,995.87
2012,06,27,02,41,995.90
2012,06,27,02,42,995.90
2012,06,27,02,43,995.87
2012,06,27,02,44,995.90
2012,06,27,02,45,995.90
2012,06,27,02,46,995.94
2012,06,27,02,47,995.90
2012,06,27,02,48,995.97
2012,06,27,02,49,996.01
2012,06,27,02,50,995.94
2012,06,27,02,51,995.97
2012,06,27,02,52,996.01
2012,06,27,02,53,996.01
2012,06,27,02,54,996.04
2012,06,27,02,55,996.04
2012,06,27,02,56,996.07
2012,06,27,02,57,996.07
2012,06,27,02,58,996.11
2012,06,27,02,59,996.11
2012,06,27,03,00,996.17
2012,06,27,03,01,996.21
2012,06,27,03,02,996.21
2012,06,27,03,03,996.24
2012,06,27,03,04,996.21
2012,06,27,03,05,996.31
2012,06,27,03,06,996.31
2012,06,27,03,07,996.31
2012,06,27,03,08,996.31
2012,06,27,03,09,996.31
2012,06,27,03,10,996.34
2012,06,27,03,11,996.28
2012,06,27,03,12,996.31
2012,06,27,03,13,996.31
2012,06,27,03,14,996.31
2012,06,27,03,15,996.28
2012,06,27,03,16,996.38
2012,06,27,03,17,996.38
2012,06,27,03,18,996.45
2012,06,27,03,19,996.38
2012,06,27,03,20,996.41
2012,06,27,03,21,996.41
2012,06,27,03,22,996.45
2012,06,27,03,23,996.41
2012,06,27,03,24,996.38
2012,06,27,03,25,996.45
2012,06,27,03,26,996.48
2012,06,27,03,27,996.45
2012,06,27,03,28,996.45
2012,06,27,03,29,996.48
2012,06,27,03,30,996.48
2012,06,27,03,31,996.48
2012,06,27,03,32,996.48
2012,06,27,03,33,996.48
2012,06,27,03,34,996.51
2012,06,27,03,35,996.51
2012,06,27,03,36,996.51
2012,06,27,03,37,996.55
2012,06,27,03,38,996.51
2012,06,27,03,39,996.55
2012,06,27,03,40,996.58
2012,06,27,03,41,996.58
2012,06,27,03,42,996.58
2012,06,27,03,43,996.61
2012,06,27,03,44,996.61
2012,06,27,03,45,996.61
2012,06,27,03,46,996.68
2012,06,27,03,47,996.65
2012,06,27,03,48,996.68
2012,06,27,03,49,996.68
2012,06,27,03,50,996.75
2012,06,27,03,51,996.68
2012,06,27,03,52,996.78
2012,06,27,03,53,996.75
2012,06,27,03,54,996.75
2012,06,27,03,55,996.78
2012,06,27,03,56,996.78
2012,06,27,03,57,996.75
2012,06,27,03,58,996.75
2012,06,27,03,59,996.78
2012,06,27,04,00,996.78
2012,06,27,04,01,996.78
2012,06,27,04,02,996.78
2012,06,27,04,03,996.78
2012,06,27,04,04,996.75
2012,06,27,04,05,996.75
2012,06,27,04,06,996.78
2012,06,27,04,07,996.75
2012,06,27,04,08,996.75
2012,06,27,04,09,996.78
2012,06,27,04,10,996.78
2012,06,27,04,11,996.75
2012,06,27,04,12,996.82
2012,06,27,04,13,996.82
2012,06,27,04,14,996.78
2012,06,27,04,15,996.78
2012,06,27,04,16,996.82
2012,06,27,04,17,996.82
2012,06,27,04,18,996.85
2012,06,27,04,19,996.78
2012,06,27,04,20,996.82
2012,06,27,04,21,996.85
2012,06,27,04,22,996.89
2012,06,27,04,23,996.89
2012,06,27,04,24,996.92
2012,06,27,04,25,996.95
2012,06,27,04,26,996.89
2012,06,27,04,27,996.92
2012,06,27,04,28,996.99
2012,06,27,04,29,996.95
2012,06,27,04,30,996.99
2012,06,27,04,31,996.99
2012,06,27,04,32,996.99
2012,06,27,04,33,996.99
2012,06,27,04,34,996.99
2012,06,27,04,35,996.95
2012,06,27,04,36,996.99
2012,06,27,04,37,996.95
2012,06,27,04,38,996.99
2012,06,27,04,39,996.99
2012,06,27,04,40,996.99
2012,06,27,04,41,997.02
2012,06,27,04,42,996.95
2012,06,27,04,43,997.02
2012,06,27,04,44,996.99
2012,06,27,04,45,996.99
2012,06,27,04,46,996.99
2012,06,27,04,47,996.99
2012,06,27,04,48,997.02
2012,06,27,04,49,997.02
2012,06,27,04,50,997.05
2012,06,27,04,51,997.09
2012,06,27,04,52,997.05
2012,06,27,04,53,997.12
2012,06,27,04,54,997.09
2012,06,27,04,55,997.16
2012,06,27,04,56,997.16
2012,06,27,04,57,997.16
2012,06,27,04,58,997.19
2012,06,27,04,59,997.19
2012,06,27,05,00,997.19
2012,06,27,05,01,997.22
2012,06,27,05,02,997.19
2012,06,27,05,03,997.22
2012,06,27,05,04,997.22
2012,06,27,05,05,997.19
2012,06,27,05,06,997.19
2012,06,27,05,07,997.22
2012,06,27,05,08,997.22
2012,06,27,05,09,997.22
2012,06,27,05,10,997.26
2012,06,27,05,11,997.26
2012,06,27,05,12,997.29
2012,06,27,05,13,997.26
2012,06,27,05,14,997.29
2012,06,27,05,15,997.26
2012,06,27,05,16,997.29
2012,06,27,05,17,997.29
2012,06,27,05,18,997.29
2012,06,27,05,19,997.29
2012,06,27,05,20,997.33
2012,06,27,05,21,997.33
2012,06,27,05,22,997.36
2012,06,27,05,23,997.33
2012,06,27,05,24,997.36
2012,06,27,05,25,997.36
2012,06,27,05,26,997.43
2012,06,27,05,27,997.43
2012,06,27,05,28,997.43
2012,06,27,05,29,997.40
2012,06,27,05,30,997.50
2012,06,27,05,31,997.50
2012,06,27,05,32,997.50
2012,06,27,05,33,997.53
2012,06,27,05,34,997.53
2012,06,27,05,35,997.53
2012,06,27,05,36,997.53
2012,06,27,05,37,997.53
2012,06,27,05,38,997.60
2012,06,27,05,39,997.56
2012,06,27,05,40,997.60
2012,06,27,05,41,997.53
2012,06,27,05,42,997.60
2012,06,27,05,43,997.60
2012,06,27,05,44,997.56
2012,06,27,05,45,997.63
2012,06,27,05,46,997.66
2012,06,27,05,47,997.63
2012,06,27,05,48,997.63
2012,06,27,05,49,997.66
2012,06,27,05,50,997.66
2012,06,27,05,51,997.70
2012,06,27,05,52,997.66
2012,06,27,05,53,997.70
2012,06,27,05,54,997.63
2012,06,27,05,55,997.66
2012,06,27,05,56,997.66
2012,06,27,05,57,997.66
2012,06,27,05,58,997.70
2012,06,27,05,59,997.70
2012,06,27,06,00,997.73
2012,06,27,06,01,997.73
2012,06,27,06,02,997.73
2012,06,27,06,03,997.70
2012,06,27,06,04,997.70
2012,06,27,06,05,997.70
2012,06,27,06,06,997.73
2012,06,27,06,07,997.70
2012,06,27,06,08,997.73
2012,06,27,06,09,997.70
2012,06,27,06,10,997.70
2012,06,27,06,11,997.73
2012,06,27,06,12,997.70
2012,06,27,06,13,997.66
2012,06,27,06,14,997.70
2012,06,27,06,15,997.70
2012,06,27,06,16,997.70
2012,06,27,06,17,997.70
2012,06,27,06,18,997.70
2012,06,27,06,19,997.73
2012,06,27,06,20,997.73
2012,06,27,06,21,997.73
2012,06,27,06,22,997.73
2012,06,27,06,23,997.77
2012,06,27,06,24,997.80
2012,06,27,06,25,997.80
2012,06,27,06,26,997.80
2012,06,27,06,27,997.83
2012,06,27,06,28,997.83
2012,06,27,06,29,997.80
2012,06,27,06,30,997.83
2012,06,27,06,31,997.87
2012,06,27,06,32,997.83
2012,06,27,06,33,997.83
2012,06,27,06,34,997.87
2012,06,27,06,35,997.87
2012,06,27,06,36,997.83
2012,06,27,06,37,997.87
2012,06,27,06,38,997.90
2012,06,27,06,39,997.87
2012,06,27,06,40,997.90
2012,06,27,06,41,997.90
2012,06,27,06,42,997.90
2012,06,27,06,43,997.90
2012,06,27,06,44,997.97
2012,06,27,06,45,997.94
2012,06,27,06,46,997.97
2012,06,27,06,47,997.97
2012,06,27,06,48,997.97
2012,06,27,06,49,998.00
2012,06,27,06,50,998.00
2012,06,27,06,51,998.04
2012,06,27,06,52,998.04
2012,06,27,06,53,998.04
2012,06,27,06,54,998.07
2012,06,27,06,55,998.00
2012,06,27,06,56,998.04
2012,06,27,06,57,998.07
2012,06,27,06,58,998.00
2012,06,27,06,59,998.04
2012,06,27,07,00,998.07
2012,06,27,07,01,998.07
2012,06,27,07,02,998.10
2012,06,27,07,03,998.14
2012,06,27,07,04,998.10
2012,06,27,07,05,998.10
2012,06,27,07,06,998.14
2012,06,27,07,07,998.10
2012,06,27,07,08,998.14
2012,06,27,07,09,998.10
2012,06,27,07,10,998.04
2012,06,27,07,11,998.07
2012,06,27,07,12,998.07
2012,06,27,07,13,998.07
2012,06,27,07,14,998.07
2012,06,27,07,15,998.00
2012,06,27,07,16,998.04
2012,06,27,07,17,998.04
2012,06,27,07,18,998.04
2012,06,27,07,19,998.00
2012,06,27,07,20,998.04
2012,06,27,07,21,998.07
2012,06,27,07,22,998.04
2012,06,27,07,23,998.07
2012,06,27,07,24,998.07
2012,06,27,07,25,998.04
2012,06,27,07,26,998.04
2012,06,27,07,27,998.04
2012,06,27,07,28,998.04
2012,06,27,07,29,998.07
2012,06,27,07,30,998.10
2012,06,27,07,31,998.10
2012,06,27,07,32,998.10
2012,06,27,07,33,998.10
2012,06,27,07,34,998.07
2012,06,27,07,35,998.10
2012,06,27,07,36,998.10
2012,06,27,07,37,998.10
2012,06,27,07,38,998.10
2012,06,27,07,39,998.14
2012,06,27,07,40,998.10
2012,06,27,07,41,998.14
2012,06,27,07,42,998.14
2012,06,27,07,43,998.10
2012,06,27,07,44,998.14
2012,06,27,07,45,998.14
2012,06,27,07,46,998.14
2012,06,27,07,47,998.14
2012,06,27,07,48,998.24
2012,06,27,07,49,998.17
2012,06,27,07,50,998.14
2012,06,27,07,51,998.14
2012,06,27,07,52,998.17
2012,06,27,07,53,998.14
2012,06,27,07,54,998.21
2012,06,27,07,55,998.21
2012,06,27,07,56,998.21
2012,06,27,07,57,998.21
2012,06,27,07,58,998.24
2012,06,27,07,59,998.21
2012,06,27,08,00,998.10
2012,06,27,08,01,998.15
2012,06,27,08,02,998.27
2012,06,27,08,03,998.27
2012,06,27,08,04,998.34
2012,06,27,08,05,998.38
2012,06,27,08,06,998.34
2012,06,27,08,07,998.34
2012,06,27,08,08,998.34
2012,06,27,08,09,998.34
2012,06,27,08,10,998.34
2012,06,27,08,11,998.31
2012,06,27,08,12,998.34
2012,06,27,08,13,998.31
2012,06,27,08,14,998.31
2012,06,27,08,15,998.31
2012,06,27,08,16,998.34
2012,06,27,08,17,998.27
2012,06,27,08,18,998.24
2012,06,27,08,19,998.27
2012,06,27,08,20,998.31
2012,06,27,08,21,998.27
2012,06,27,08,22,998.34
2012,06,27,08,23,998.41
2012,06,27,08,24,998.31
2012,06,27,08,25,998.31
2012,06,27,08,26,998.38
2012,06,27,08,27,998.38
2012,06,27,08,28,998.38
2012,06,27,08,29,998.38
2012,06,27,08,30,998.34
2012,06,27,08,31,998.34
2012,06,27,08,32,998.27
2012,06,27,08,33,998.34
2012,06,27,08,34,998.31
2012,06,27,08,35,998.34
2012,06,27,08,36,998.34
2012,06,27,08,37,998.31
2012,06,27,08,38,998.31
2012,06,27,08,39,998.34
2012,06,27,08,40,998.27
2012,06,27,08,41,998.22
2012,06,27,08,42,998.31
2012,06,27,08,43,998.31
2012,06,27,08,44,998.31
2012,06,27,08,45,998.24
2012,06,27,08,46,998.24
2012,06,27,08,47,998.27
2012,06,27,08,48,998.27
2012,06,27,08,49,998.34
2012,06,27,08,50,998.34
2012,06,27,08,51,998.34
2012,06,27,08,52,998.38
2012,06,27,08,53,998.41
2012,06,27,08,54,998.38
2012,06,27,08,55,998.38
2012,06,27,08,56,998.38
2012,06,27,08,57,998.27
2012,06,27,08,58,998.31
2012,06,27,08,59,998.31
2012,06,27,09,00,998.31
2012,06,27,09,01,998.31
2012,06,27,09,02,998.41
2012,06,27,09,03,998.41
2012,06,27,09,04,998.44
2012,06,27,09,05,998.38
2012,06,27,09,06,998.41
2012,06,27,09,07,998.41
2012,06,27,09,08,998.41
2012,06,27,09,09,998.38
2012,06,27,09,10,998.41
2012,06,27,09,11,998.41
2012,06,27,09,12,998.38
2012,06,27,09,13,998.41
2012,06,27,09,14,998.44
2012,06,27,09,15,998.44
2012,06,27,09,16,998.48
2012,06,27,09,17,998.44
2012,06,27,09,18,998.44
2012,06,27,09,19,998.44
2012,06,27,09,20,998.48
2012,06,27,09,21,998.48
2012,06,27,09,22,998.48
2012,06,27,09,23,998.54
2012,06,27,09,24,998.48
2012,06,27,09,25,998.54
2012,06,27,09,26,998.58
2012,06,27,09,27,998.61
2012,06,27,09,28,998.58
2012,06,27,09,29,998.61
2012,06,27,09,30,998.61
2012,06,27,09,31,998.61
2012,06,27,09,32,998.61
2012,06,27,09,33,998.65
2012,06,27,09,34,998.61
2012,06,27,09,35,998.58
2012,06,27,09,36,998.65
2012,06,27,09,37,998.58
2012,06,27,09,38,998.54
2012,06,27,09,39,998.54
2012,06,27,09,40,998.61
2012,06,27,09,41,998.65
2012,06,27,09,42,998.61
2012,06,27,09,43,998.58
2012,06,27,09,44,998.61
2012,06,27,09,45,998.65
2012,06,27,09,46,998.68
2012,06,27,09,47,998.68
2012,06,27,09,48,998.71
2012,06,27,09,49,998.71
2012,06,27,09,50,998.75
2012,06,27,09,51,998.68
2012,06,27,09,52,998.75
2012,06,27,09,53,998.68
2012,06,27,09,54,998.65
2012,06,27,09,55,998.68
2012,06,27,09,56,998.65
2012,06,27,09,57,998.68
2012,06,27,09,58,998.68
2012,06,27,09,59,998.65
2012,06,27,10,00,998.65
2012,06,27,10,01,998.65
2012,06,27,10,02,998.65
2012,06,27,10,03,998.65
2012,06,27,10,04,998.61
2012,06,27,10,05,998.58
2012,06,27,10,06,998.58
2012,06,27,10,07,998.54
2012,06,27,10,08,998.58
2012,06,27,10,09,998.58
2012,06,27,10,10,998.58
2012,06,27,10,11,998.61
2012,06,27,10,12,998.61
2012,06,27,10,13,998.58
2012,06,27,10,14,998.54
2012,06,27,10,15,998.61
2012,06,27,10,16,998.54
2012,06,27,10,17,998.58
2012,06,27,10,18,998.58
2012,06,27,10,19,998.58
2012,06,27,10,20,998.58
2012,06,27,10,21,998.54
2012,06,27,10,22,998.61
2012,06,27,10,23,998.61
2012,06,27,10,24,998.58
2012,06,27,10,25,998.61
2012,06,27,10,26,998.58
2012,06,27,10,27,998.61
2012,06,27,10,28,998.58
2012,06,27,10,29,998.61
2012,06,27,10,30,998.61
2012,06,27,10,31,998.65
2012,06,27,10,32,998.58
2012,06,27,10,33,998.61
2012,06,27,10,34,998.54
2012,06,27,10,35,998.61
2012,06,27,10,36,998.58
2012,06,27,10,37,998.58
2012,06,27,10,38,998.61
2012,06,27,10,39,998.61
2012,06,27,10,40,998.58
2012,06,27,10,41,998.58
2012,06,27,10,42,998.58
2012,06,27,10,43,998.61
2012,06,27,10,44,998.65
2012,06,27,10,45,998.58
2012,06,27,10,46,998.65
2012,06,27,10,47,998.65
2012,06,27,10,48,998.68
2012,06,27,10,49,998.68
2012,06,27,10,50,998.68
2012,06,27,10,51,998.68
2012,06,27,10,52,998.68
2012,06,27,10,53,998.65
2012,06,27,10,54,998.68
2012,06,27,10,55,998.68
2012,06,27,10,56,998.71
2012,06,27,10,57,998.68
2012,06,27,10,58,998.68
2012,06,27,10,59,998.71
2012,06,27,11,00,998.68
2012,06,27,11,01,998.71
2012,06,27,11,02,998.71
2012,06,27,11,03,998.71
2012,06,27,11,04,998.68
2012,06,27,11,05,998.61
2012,06,27,11,06,998.65
2012,06,27,11,07,998.68
2012,06,27,11,08,998.68
2012,06,27,11,09,998.65
2012,06,27,11,10,998.65
2012,06,27,11,11,998.65
2012,06,27,11,12,998.68
2012,06,27,11,13,998.71
2012,06,27,11,14,998.68
2012,06,27,11,15,998.65
2012,06,27,11,16,998.68
2012,06,27,11,17,998.71
2012,06,27,11,18,998.68
2012,06,27,11,19,998.71
2012,06,27,11,20,998.71
2012,06,27,11,21,998.68
2012,06,27,11,22,998.68
2012,06,27,11,23,998.65
2012,06,27,11,24,998.71
2012,06,27,11,25,998.71
2012,06,27,11,26,998.71
2012,06,27,11,27,998.75
2012,06,27,11,28,998.68
2012,06,27,11,29,998.75
2012,06,27,11,30,998.75
2012,06,27,11,31,998.75
2012,06,27,11,32,998.75
2012,06,27,11,33,998.82
2012,06,27,11,34,998.78
2012,06,27,11,35,998.78
2012,06,27,11,36,998.82
2012,06,27,11,37,998.82
2012,06,27,11,38,998.78
2012,06,27,11,39,998.82
2012,06,27,11,40,998.82
2012,06,27,11,41,998.82
2012,06,27,11,42,998.82
2012,06,27,11,43,998.85
2012,06,27,11,44,998.92
2012,06,27,11,45,998.95
2012,06,27,11,46,998.85
2012,06,27,11,47,998.85
2012,06,27,11,48,998.92
2012,06,27,11,49,998.82
2012,06,27,11,50,998.85
2012,06,27,11,51,998.85
2012,06,27,11,52,998.82
2012,06,27,11,53,998.78
2012,06,27,11,54,998.85
2012,06,27,11,55,998.85
2012,06,27,11,56,998.82
2012,06,27,11,57,998.85
2012,06,27,11,58,998.82
2012,06,27,11,59,998.88
2012,06,27,12,00,998.88
2012,06,27,12,01,998.82
2012,06,27,12,02,998.88
2012,06,27,12,03,998.88
2012,06,27,12,04,998.88
2012,06,27,12,05,998.85
2012,06,27,12,06,998.85
2012,06,27,12,07,998.82
2012,06,27,12,08,998.88
2012,06,27,12,09,998.88
2012,06,27,12,10,998.92
2012,06,27,12,11,998.92
2012,06,27,12,12,998.92
2012,06,27,12,13,998.92
2012,06,27,12,14,998.95
2012,06,27,12,15,998.95
2012,06,27,12,16,998.95
2012,06,27,12,17,998.99
2012,06,27,12,18,998.99
2012,06,27,12,19,998.99
2012,06,27,12,20,999.02
2012,06,27,12,21,999.05
2012,06,27,12,22,999.05
2012,06,27,12,23,999.09
2012,06,27,12,24,999.09
2012,06,27,12,25,999.12
2012,06,27,12,26,999.12
2012,06,27,12,27,999.12
2012,06,27,12,28,999.15
2012,06,27,12,29,999.15
2012,06,27,12,30,999.12
2012,06,27,12,31,999.15
2012,06,27,12,32,999.15
2012,06,27,12,33,999.15
2012,06,27,12,34,999.15
2012,06,27,12,35,999.19
2012,06,27,12,36,999.19
2012,06,27,12,37,999.22
2012,06,27,12,38,999.19
2012,06,27,12,39,999.26
2012,06,27,12,40,999.29
2012,06,27,12,41,999.22
2012,06,27,12,42,999.22
2012,06,27,12,43,999.29
2012,06,27,12,44,999.29
2012,06,27,12,45,999.29
2012,06,27,12,46,999.36
2012,06,27,12,47,999.32
2012,06,27,12,48,999.36
2012,06,27,12,49,999.36
2012,06,27,12,50,999.39
2012,06,27,12,51,999.39
2012,06,27,12,52,999.43
2012,06,27,12,53,999.43
2012,06,27,12,54,999.46
2012,06,27,12,55,999.46
2012,06,27,12,56,999.43
2012,06,27,12,57,999.46
2012,06,27,12,58,999.49
2012,06,27,12,59,999.49
2012,06,27,13,00,999.53
2012,06,27,13,01,999.56
2012,06,27,13,02,999.56
2012,06,27,13,03,999.59
2012,06,27,13,04,999.63
2012,06,27,13,05,999.63
2012,06,27,13,06,999.70
2012,06,27,13,07,999.73
2012,06,27,13,08,999.70
2012,06,27,13,09,999.76
2012,06,27,13,10,999.80
2012,06,27,13,11,999.83
2012,06,27,13,12,999.87
2012,06,27,13,13,999.87
2012,06,27,13,14,999.90
2012,06,27,13,15,999.90
2012,06,27,13,16,999.97
2012,06,27,13,17,1000.03
2012,06,27,13,18,1000.07
2012,06,27,13,19,1000.14
2012,06,27,13,20,1000.07
2012,06,27,13,21,1000.14
2012,06,27,13,22,1000.14
2012,06,27,13,23,1000.14
2012,06,27,13,24,1000.24
2012,06,27,13,25,1000.24
2012,06,27,13,26,1000.24
2012,06,27,13,27,1000.20
2012,06,27,13,28,1000.27
2012,06,27,13,29,1000.27
2012,06,27,13,30,1000.31
2012,06,27,13,31,1000.31
2012,06,27,13,32,1000.31
2012,06,27,13,33,1000.31
2012,06,27,13,34,1000.34
2012,06,27,13,35,1000.34
2012,06,27,13,36,1000.37
2012,06,27,13,37,1000.34
2012,06,27,13,38,1000.41
2012,06,27,13,39,1000.37
2012,06,27,13,40,1000.37
2012,06,27,13,41,1000.37
2012,06,27,13,42,1000.41
2012,06,27,13,43,1000.41
2012,06,27,13,44,1000.37
2012,06,27,13,45,1000.34
2012,06,27,13,46,1000.44
2012,06,27,13,47,1000.44
2012,06,27,13,48,1000.44
2012,06,27,13,49,1000.51
2012,06,27,13,50,1000.44
2012,06,27,13,51,1000.44
2012,06,27,13,52,1000.54
2012,06,27,13,53,1000.54
2012,06,27,13,54,1000.51
2012,06,27,13,55,1000.58
2012,06,27,13,56,1000.58
2012,06,27,13,57,1000.64
2012,06,27,13,58,1000.64
2012,06,27,13,59,1000.71
2012,06,27,14,00,1000.64
2012,06,27,14,01,1000.68
2012,06,27,14,02,1000.68
2012,06,27,14,03,1000.75
2012,06,27,14,04,1000.68
2012,06,27,14,05,1000.71
2012,06,27,14,06,1000.71
2012,06,27,14,07,1000.68
2012,06,27,14,08,1000.64
2012,06,27,14,09,1000.71
2012,06,27,14,10,1000.75
2012,06,27,14,11,1000.75
2012,06,27,14,12,1000.81
2012,06,27,14,13,1000.81
2012,06,27,14,14,1000.81
2012,06,27,14,15,1000.78
2012,06,27,14,16,1000.81
2012,06,27,14,17,1000.85
2012,06,27,14,18,1000.85
2012,06,27,14,19,1000.85
2012,06,27,14,20,1000.92
2012,06,27,14,21,1000.88
2012,06,27,14,22,1000.88
2012,06,27,14,23,1000.92
2012,06,27,14,24,1000.95
2012,06,27,14,25,1000.98
2012,06,27,14,26,1000.95
2012,06,27,14,27,1000.92
2012,06,27,14,28,1000.95
2012,06,27,14,29,1001.02
2012,06,27,14,30,1000.98
2012,06,27,14,31,1000.98
2012,06,27,14,32,1000.98
2012,06,27,14,33,1000.95
2012,06,27,14,34,1001.02
2012,06,27,14,35,1001.02
2012,06,27,14,36,1001.05
2012,06,27,14,37,1001.02
2012,06,27,14,38,1000.98
2012,06,27,14,39,1001.05
2012,06,27,14,40,1001.02
2012,06,27,14,41,1001.02
2012,06,27,14,42,1001.05
2012,06,27,14,43,1001.05
2012,06,27,14,44,1001.12
2012,06,27,14,45,1001.08
2012,06,27,14,46,1001.08
2012,06,27,14,47,1001.08
2012,06,27,14,48,1001.12
2012,06,27,14,49,1001.08
2012,06,27,14,50,1001.08
2012,06,27,14,51,1001.08
2012,06,27,14,52,1001.05
2012,06,27,14,53,1001.05
2012,06,27,14,54,1001.08
2012,06,27,14,55,1001.05
2012,06,27,14,56,1001.05
2012,06,27,14,57,1001.05
2012,06,27,14,58,1001.05
2012,06,27,14,59,1001.05
2012,06,27,15,00,1001.05
2012,06,27,15,01,1001.05
2012,06,27,15,02,1001.05
2012,06,27,15,03,1001.02
2012,06,27,15,04,1001.05
2012,06,27,15,05,1001.05
2012,06,27,15,06,1001.05
2012,06,27,15,07,1001.02
2012,06,27,15,08,1000.98
2012,06,27,15,09,1000.98
2012,06,27,15,10,1000.98
2012,06,27,15,11,1001.02
2012,06,27,15,12,1001.02
2012,06,27,15,13,1001.02
2012,06,27,15,14,1001.05
2012,06,27,15,15,1001.02
2012,06,27,15,16,1001.08
2012,06,27,15,17,1001.05
2012,06,27,15,18,1001.05
2012,06,27,15,19,1001.08
2012,06,27,15,20,1001.12
2012,06,27,15,21,1001.12
2012,06,27,15,22,1001.12
2012,06,27,15,23,1001.12
2012,06,27,15,24,1001.12
2012,06,27,15,25,1001.08
2012,06,27,15,26,1001.12
2012,06,27,15,27,1001.12
2012,06,27,15,28,1001.15
2012,06,27,15,29,1001.12
2012,06,27,15,30,1001.12
2012,06,27,15,31,1001.12
2012,06,27,15,32,1001.15
2012,06,27,15,33,1001.12
2012,06,27,15,34,1001.12
2012,06,27,15,35,1001.12
2012,06,27,15,36,1001.12
2012,06,27,15,37,1001.12
2012,06,27,15,38,1001.12
2012,06,27,15,39,1001.12
2012,06,27,15,40,1001.12
2012,06,27,15,41,1001.12
2012,06,27,15,42,1001.12
2012,06,27,15,43,1001.15
2012,06,27,15,44,1001.19
2012,06,27,15,45,1001.19
2012,06,27,15,46,1001.22
2012,06,27,15,47,1001.22
2012,06,27,15,48,1001.19
2012,06,27,15,49,1001.22
2012,06,27,15,50,1001.15
2012,06,27,15,51,1001.19
2012,06,27,15,52,1001.19
2012,06,27,15,53,1001.22
2012,06,27,15,54,1001.22
2012,06,27,15,55,1001.19
2012,06,27,15,56,1001.22
2012,06,27,15,57,1001.19
2012,06,27,15,58,1001.22
2012,06,27,15,59,1001.22
2012,06,27,16,00,1001.22
2012,06,27,16,01,1001.22
2012,06,27,16,02,1001.22
2012,06,27,16,03,1001.22
2012,06,27,16,04,1001.19
2012,06,27,16,05,1001.15
2012,06,27,16,06,1001.22
2012,06,27,16,07,1001.19
2012,06,27,16,08,1001.22
2012,06,27,16,09,1001.19
2012,06,27,16,10,1001.25
2012,06,27,16,11,1001.25
2012,06,27,16,12,1001.22
2012,06,27,16,13,1001.22
2012,06,27,16,14,1001.22
2012,06,27,16,15,1001.22
2012,06,27,16,16,1001.22
2012,06,27,16,17,1001.22
2012,06,27,16,18,1001.19
2012,06,27,16,19,1001.22
2012,06,27,16,20,1001.22
2012,06,27,16,21,1001.22
2012,06,27,16,22,1001.25
2012,06,27,16,23,1001.22
2012,06,27,16,24,1001.22
2012,06,27,16,25,1001.25
2012,06,27,16,26,1001.25
2012,06,27,16,27,1001.25
2012,06,27,16,28,1001.22